Location: Bilsen
(53.7722°N, 9.8765°E)
Time: 18:48:17
(UTC+00:00)

Cosmos 2219 Rocket - Pass Details

Date: 18 February 2020
Orbit: 828 x 846 km, 71.0° (Epoch: 28 March)

Event Time Altitude Azimuth Distance (km) Brightness Sun altitude
Exits shadow 03:58:59 29° 321° (NW) 1,510 3.3 -23.6°
Maximum altitude 03:59:04 29° 323° (NW) 1,509 3.3 -23.5°
Drops below altitude 10° 04:04:00 10° 23° (NNE) 2,480 5.0 -22.8°
Sets 04:06:47 0° 34° (NE) 3,416 6.0 -22.4°
